QPF
0.01 0.01 0.01 0.01 0.01 0.01 0.02 0.03 0.04 0.04 0.04 0.04 0.04 0.03 0.03 0.04 0.04 0.03 0.02 0.03 0.03 0.03 0.03 0.04 0.04 0.05 0.06 0.07 0.08 0.08 0.07 0.08 0.11 0.12 0.10 0.07 0.04 0.04
0.02 0.01 0.01 0.01 0.01 0.02 0.02 0.02 0.03 0.04 0.04 0.04 0.03 0.02 0.02 0.02 0.03 0.02 0.02 0.03 0.02 0.02 0.02 0.03 0.04 0.04 0.05 0.04 0.05 0.06 0.07 0.07 0.08 0.11 0.12 0.09 0.06 0.05
0.02 0.01 0.01 0.01 0.01 0.02 0.02 0.02 0.02 0.03 0.03 0.03 0.03 0.02 0.02 0.02 0.02 0.02 0.02 0.02 0.02 0.02 0.02 0.02 0.03 0.03 0.04 0.04 0.04 0.04 0.06 0.07 0.08 0.10 0.10 0.10 0.08 0.06
0.02 0.02 0.01 0.01 0.01 0.02 0.03 0.02 0.02 0.02 0.02 0.02 0.03 0.03 0.02 0.01 0.02 0.02 0.02 0.02 0.02 0.02 0.02 0.02 0.02 0.03 0.03 0.03 0.03 0.03 0.03 0.04 0.05 0.08 0.10 0.09 0.08 0.06
0.02 0.02 0.02 0.02 0.01 0.02 0.03 0.03 0.02 0.01 0.01 0.02 0.02 0.03 0.03 0.02 0.02 0.02 0.02 0.02 0.02 0.03 0.02 0.02 0.02 0.02 0.03 0.03 0.03 0.03 0.02 0.03 0.03 0.05 0.06 0.09 0.09 0.06
0.02 0.02 0.02 0.02 0.01 0.01 0.03 0.02 0.02 0.01 0.02 0.02 0.02 0.03 0.03 0.03 0.03 0.03 0.03 0.03 0.03 0.03 0.02 0.02 0.02 0.02 0.02 0.02 0.02 0.02 0.02 0.02 0.03 0.04 0.05 0.06 0.07 0.07
0.01 0.02 0.02 0.02 0.02 0.02 0.02 0.02 0.02 0.02 0.02 0.02 0.03 0.03 0.04 0.04 0.04 0.03 0.04 0.04 0.04 0.04 0.03 0.02 0.02 0.02 0.02 0.02 0.02 0.01 0.01 0.02 0.02 0.03 0.04 0.05 0.05 0.05
0.01 0.01 0.02 0.02 0.02 0.02 0.02 0.02 0.03 0.03 0.03 0.03 0.02 0.03 0.03 0.03 0.02 0.03 0.04 0.04 0.05 0.04 0.03 0.02 0.02 0.02 0.02 0.02 0.02 0.01 0.01 0.01 0.02 0.03 0.03 0.04 0.04 0.04
0.02 0.02 0.02 0.02 0.02 0.02 0.02 0.02 0.02 0.02 0.02 0.02 0.02 0.02 0.02 0.02 0.02 0.03 0.03 0.04 0.04 0.04 0.04 0.03 0.02 0.02 0.02 0.01 0.01 0.01 0.01 0.01 0.02 0.02 0.03 0.03 0.04 0.04
0.01 0.01 0.02 0.02 0.02 0.02 0.02 0.02 0.02 0.02 0.01 0.01 0.01 0.01 0.01 0.01 0.02 0.03 0.04 0.04 0.03 0.03 0.04 0.03 0.02 0.02 0.02 0.01 0.02 0.02 0.02 0.02 0.02 0.02 0.03 0.03 0.03 0.03
0.02 0.01 0.01 0.02 0.02 0.02 0.02 0.02 0.02 0.02 0.01 0.01 0.01 0.01 0.01 0.02 0.03 0.04 0.05 0.05 0.05 0.04 0.04 0.04 0.02 0.02 0.02 0.02 0.02 0.02 0.02 0.02 0.02 0.02 0.03 0.03 0.04 0.04
0.02 0.02 0.02 0.02 0.02 0.02 0.03 0.03 0.03 0.02 0.01 0.01 0.01 0.01 0.01 0.02 0.02 0.04 0.04 0.05 0.05 0.04 0.03 0.03 0.02 0.03 0.03 0.03 0.03 0.03 0.02 0.02 0.02 0.02 0.03 0.03 0.04 0.04
0.03 0.03 0.03 0.03 0.03 0.03 0.03 0.03 0.03 0.03 0.03 0.03 0.02 0.02 0.02 0.02 0.02 0.03 0.03 0.04 0.04 0.03 0.02 0.02 0.03 0.02 0.03 0.03 0.04 0.04 0.03 0.02 0.02 0.02 0.02 0.03 0.04 0.05
0.03 0.03 0.03 0.03 0.04 0.04 0.03 0.03 0.04 0.04 0.04 0.04 0.03 0.02 0.02 0.02 0.02 0.02 0.02 0.03 0.02 0.02 0.02 0.02 0.02 0.02 0.02 0.02 0.03 0.03 0.03 0.02 0.02 0.02 0.02 0.03 0.04 0.05
0.05 0.03 0.03 0.04 0.04 0.04 0.05 0.04 0.03 0.03 0.03 0.04 0.03 0.02 0.01 0.01 0.02 0.02 0.02 0.02 0.03 0.02 0.02 0.02 0.02 0.02 0.02 0.02 0.02 0.03 0.03 0.03 0.02 0.02 0.02 0.03 0.03 0.04
0.07 0.06 0.05 0.04 0.03 0.03 0.04 0.05 0.05 0.04 0.03 0.03 0.02 0.02 0.02 0.02 0.02 0.02 0.02 0.03 0.03 0.03 0.02 0.03 0.03 0.02 0.02 0.02 0.02 0.03 0.03 0.03 0.03 0.02 0.02 0.03 0.03 0.03
0.06 0.07 0.07 0.06 0.05 0.04 0.04 0.04 0.04 0.05 0.04 0.03 0.03 0.03 0.03 0.03 0.03 0.02 0.02 0.03 0.04 0.03 0.03 0.04 0.04 0.03 0.02 0.02 0.02 0.02 0.02 0.02 0.02 0.03 0.03 0.03 0.03 0.03
0.07 0.07 0.07 0.07 0.05 0.04 0.04 0.04 0.04 0.04 0.04 0.03 0.03 0.04 0.03 0.03 0.03 0.03 0.03 0.03 0.03 0.03 0.03 0.03 0.04 0.04 0.03 0.02 0.02 0.02 0.02 0.02 0.02 0.02 0.03 0.02 0.02 0.02
0.08 0.08 0.08 0.07 0.05 0.04 0.04 0.04 0.04 0.04 0.04 0.04 0.04 0.04 0.04 0.04 0.03 0.03 0.03 0.04 0.03 0.03 0.03 0.03 0.04 0.04 0.04 0.03 0.02 0.01 0.02 0.02 0.02 0.02 0.02 0.02 0.01 0.01
0.07 0.08 0.08 0.07 0.06 0.05 0.04 0.04 0.05 0.05 0.05 0.04 0.04 0.04 0.05 0.05 0.04 0.04 0.04 0.04 0.04 0.04 0.03 0.03 0.04 0.04 0.04 0.03 0.02 0.02 0.02 0.03 0.02 0.02 0.02 0.02 0.02 0.02
0.06 0.06 0.07 0.08 0.07 0.06 0.05 0.05 0.05 0.06 0.06 0.06 0.05 0.05 0.05 0.05 0.05 0.05 0.04 0.05 0.05 0.04 0.04 0.03 0.03 0.03 0.03 0.03 0.03 0.03 0.03 0.04 0.04 0.04 0.04 0.05 0.04 0.03
0.05 0.06 0.06 0.07 0.08 0.08 0.08 0.06 0.05 0.05 0.06 0.07 0.07 0.06 0.05 0.05 0.05 0.05 0.05 0.05 0.05 0.05 0.04 0.03 0.03 0.04 0.04 0.04 0.04 0.03 0.03 0.04 0.04 0.04 0.05 0.05 0.05 0.04
0.06 0.06 0.06 0.06 0.07 0.07 0.08 0.08 0.07 0.06 0.06 0.07 0.08 0.07 0.06 0.06 0.05 0.05 0.05 0.05 0.05 0.05 0.04 0.04 0.04 0.04 0.04 0.04 0.04 0.04 0.03 0.03 0.04 0.04 0.05 0.05 0.05 0.05
MSLP
1026.95 1027.20 1027.40 1027.55 1027.66 1027.73 1027.79 1027.85 1027.94 1028.03 1028.14 1028.23 1028.28 1028.27 1028.18 1028.01 1027.77 1027.47 1027.14 1026.81 1026.49 1026.21 1025.98 1025.78 1025.60 1025.44 1025.28 1025.13 1025.00 1024.89 1024.83 1024.84 1024.93 1025.09 1025.33 1025.61 1025.93 1026.24
1027.56 1027.82 1028.03 1028.18 1028.27 1028.32 1028.35 1028.38 1028.42 1028.48 1028.54 1028.60 1028.62 1028.58 1028.48 1028.29 1028.04 1027.73 1027.39 1027.05 1026.72 1026.43 1026.18 1025.97 1025.80 1025.64 1025.50 1025.37 1025.26 1025.19 1025.16 1025.20 1025.31 1025.50 1025.74 1026.03 1026.33 1026.63
1028.00 1028.27 1028.49 1028.65 1028.75 1028.80 1028.82 1028.84 1028.86 1028.89 1028.93 1028.96 1028.96 1028.91 1028.79 1028.61 1028.35 1028.05 1027.70 1027.36 1027.02 1026.72 1026.46 1026.24 1026.05 1025.89 1025.74 1025.61 1025.52 1025.46 1025.45 1025.51 1025.63 1025.83 1026.08 1026.37 1026.67 1026.94
1028.27 1028.55 1028.78 1028.95 1029.06 1029.13 1029.17 1029.19 1029.21 1029.24 1029.27 1029.29 1029.28 1029.22 1029.11 1028.93 1028.68 1028.38 1028.05 1027.71 1027.37 1027.06 1026.78 1026.53 1026.32 1026.13 1025.97 1025.83 1025.72 1025.66 1025.66 1025.72 1025.85 1026.06 1026.31 1026.61 1026.90 1027.18
1028.39 1028.67 1028.91 1029.09 1029.23 1029.32 1029.38 1029.43 1029.46 1029.50 1029.53 1029.55 1029.54 1029.49 1029.38 1029.21 1028.97 1028.69 1028.37 1028.03 1027.69 1027.37 1027.07 1026.79 1026.55 1026.33 1026.13 1025.97 1025.84 1025.76 1025.75 1025.81 1025.94 1026.15 1026.41 1026.70 1027.01 1027.29
1028.41 1028.67 1028.91 1029.11 1029.27 1029.39 1029.48 1029.54 1029.60 1029.65 1029.68 1029.70 1029.69 1029.64 1029.54 1029.38 1029.16 1028.89 1028.58 1028.25 1027.91 1027.58 1027.26 1026.96 1026.68 1026.42 1026.19 1025.99 1025.84 1025.74 1025.71 1025.75 1025.88 1026.08 1026.35 1026.65 1026.97 1027.27
1028.36 1028.60 1028.83 1029.03 1029.21 1029.34 1029.45 1029.54 1029.61 1029.66 1029.70 1029.71 1029.70 1029.64 1029.54 1029.38 1029.18 1028.92 1028.63 1028.31 1027.97 1027.64 1027.30 1026.98 1026.67 1026.39 1026.12 1025.89 1025.71 1025.58 1025.53 1025.56 1025.67 1025.87 1026.13 1026.44 1026.77 1027.09
1028.28 1028.49 1028.70 1028.90 1029.07 1029.21 1029.33 1029.42 1029.48 1029.53 1029.55 1029.55 1029.52 1029.45 1029.34 1029.18 1028.98 1028.74 1028.46 1028.16 1027.83 1027.50 1027.17 1026.83 1026.51 1026.20 1025.91 1025.66 1025.45 1025.31 1025.23 1025.25 1025.34 1025.53 1025.78 1026.09 1026.42 1026.76
1028.17 1028.35 1028.54 1028.71 1028.87 1029.00 1029.10 1029.18 1029.22 1029.24 1029.23 1029.20 1029.14 1029.06 1028.94 1028.78 1028.58 1028.35 1028.09 1027.81 1027.50 1027.18 1026.85 1026.52 1026.19 1025.88 1025.58 1025.32 1025.10 1024.94 1024.85 1024.85 1024.93 1025.09 1025.33 1025.62 1025.95 1026.29
1028.00 1028.15 1028.31 1028.46 1028.60 1028.70 1028.78 1028.81 1028.82 1028.79 1028.75 1028.68 1028.59 1028.47 1028.34 1028.18 1027.99 1027.78 1027.54 1027.28 1026.99 1026.69 1026.38 1026.07 1025.75 1025.45 1025.16 1024.90 1024.68 1024.52 1024.42 1024.40 1024.46 1024.60 1024.81 1025.08 1025.39 1025.73
1027.72 1027.87 1028.01 1028.14 1028.24 1028.31 1028.34 1028.33 1028.29 1028.22 1028.12 1028.01 1027.89 1027.75 1027.60 1027.45 1027.27 1027.07 1026.86 1026.62 1026.36 1026.09 1025.81 1025.51 1025.22 1024.93 1024.66 1024.42 1024.21 1024.05 1023.96 1023.93 1023.97 1024.09 1024.27 1024.51 1024.79 1025.10
1027.31 1027.46 1027.60 1027.71 1027.79 1027.83 1027.81 1027.76 1027.66 1027.54 1027.40 1027.25 1027.09 1026.94 1026.78 1026.63 1026.46 1026.29 1026.10 1025.89 1025.66 1025.41 1025.15 1024.88 1024.61 1024.34 1024.10 1023.88 1023.69 1023.55 1023.46 1023.44 1023.47 1023.57 1023.72 1023.93 1024.18 1024.46
1026.75 1026.92 1027.07 1027.18 1027.24 1027.25 1027.19 1027.09 1026.95 1026.78 1026.60 1026.42 1026.24 1026.08 1025.92 1025.77 1025.62 1025.46 1025.29 1025.09 1024.88 1024.65 1024.41 1024.16 1023.91 1023.67 1023.45 1023.26 1023.10 1022.99 1022.92 1022.90 1022.94 1023.02 1023.16 1023.34 1023.57 1023.83
1026.04 1026.25 1026.43 1026.54 1026.60 1026.58 1026.50 1026.36 1026.18 1025.98 1025.77 1025.56 1025.37 1025.20 1025.04 1024.89 1024.75 1024.59 1024.43 1024.24 1024.03 1023.81 1023.58 1023.34 1023.10 1022.89 1022.69 1022.53 1022.41 1022.33 1022.29 1022.30 1022.35 1022.44 1022.58 1022.75 1022.95 1023.19
1025.23 1025.49 1025.69 1025.82 1025.88 1025.85 1025.74 1025.58 1025.37 1025.14 1024.90 1024.68 1024.47 1024.29 1024.13 1023.98 1023.83 1023.67 1023.50 1023.30 1023.09 1022.86 1022.62 1022.38 1022.16 1021.97 1021.80 1021.68 1021.60 1021.56 1021.56 1021.61 1021.69 1021.80 1021.94 1022.12 1022.32 1022.56
1024.36 1024.65 1024.88 1025.03 1025.09 1025.05 1024.93 1024.75 1024.51 1024.26 1024.01 1023.76 1023.54 1023.35 1023.17 1023.00 1022.83 1022.66 1022.46 1022.25 1022.02 1021.77 1021.53 1021.29 1021.09 1020.91 1020.78 1020.70 1020.67 1020.68 1020.74 1020.83 1020.95 1021.10 1021.27 1021.46 1021.68 1021.91
1023.48 1023.80 1024.04 1024.20 1024.25 1024.20 1024.06 1023.86 1023.61 1023.34 1023.06 1022.80 1022.55 1022.33 1022.13 1021.93 1021.74 1021.53 1021.30 1021.07 1020.81 1020.56 1020.31 1020.09 1019.90 1019.76 1019.67 1019.64 1019.67 1019.75 1019.86 1020.01 1020.18 1020.38 1020.58 1020.80 1021.03 1021.28
1022.62 1022.94 1023.18 1023.32 1023.36 1023.29 1023.14 1022.91 1022.64 1022.35 1022.05 1021.76 1021.49 1021.24 1021.00 1020.77 1020.53 1020.29 1020.04 1019.78 1019.52 1019.27 1019.04 1018.85 1018.70 1018.61 1018.58 1018.62 1018.71 1018.86 1019.04 1019.25 1019.47 1019.71 1019.95 1020.19 1020.44 1020.69
1021.81 1022.10 1022.31 1022.42 1022.43 1022.34 1022.16 1021.91 1021.62 1021.30 1020.98 1020.66 1020.36 1020.08 1019.80 1019.54 1019.28 1019.01 1018.75 1018.48 1018.23 1018.01 1017.82 1017.68 1017.60 1017.58 1017.64 1017.75 1017.93 1018.14 1018.39 1018.66 1018.93 1019.20 1019.46 1019.72 1019.98 1020.23
1021.05 1021.28 1021.44 1021.50 1021.47 1021.34 1021.14 1020.87 1020.55 1020.22 1019.88 1019.54 1019.22 1018.91 1018.61 1018.32 1018.04 1017.78 1017.52 1017.28 1017.07 1016.91 1016.79 1016.74 1016.75 1016.83 1016.98 1017.19 1017.44 1017.73 1018.04 1018.35 1018.66 1018.95 1019.22 1019.48 1019.73 1019.97
1020.32 1020.48 1020.58 1020.59 1020.51 1020.35 1020.11 1019.83 1019.51 1019.16 1018.81 1018.47 1018.13 1017.81 1017.51 1017.22 1016.96 1016.71 1016.49 1016.31 1016.18 1016.10 1016.09 1016.15 1016.27 1016.47 1016.73 1017.03 1017.36 1017.71 1018.07 1018.41 1018.73 1019.03 1019.30 1019.54 1019.76 1019.97
1019.63 1019.72 1019.75 1019.70 1019.58 1019.40 1019.15 1018.86 1018.54 1018.20 1017.86 1017.53 1017.21 1016.90 1016.62 1016.36 1016.14 1015.94 1015.80 1015.70 1015.67 1015.71 1015.82 1016.00 1016.26 1016.57 1016.93 1017.32 1017.72 1018.13 1018.51 1018.86 1019.18 1019.46 1019.70 1019.91 1020.10 1020.26
1018.98 1019.01 1018.98 1018.90 1018.75 1018.55 1018.31 1018.03 1017.73 1017.43 1017.12 1016.82 1016.54 1016.28 1016.04 1015.84 1015.68 1015.57 1015.52 1015.53 1015.61 1015.78 1016.02 1016.33 1016.70 1017.12 1017.57 1018.03 1018.49 1018.92 1019.31 1019.66 1019.96 1020.20 1020.40 1020.57 1020.70 1020.81
Thickness
5462 5465 5468 5472 5474 5478 5480 5483 5485 5490 5496 5499 5500 5502 5503 5506 5509 5512 5516 5520 5524 5529 5533 5537 5540 5544 5547 5550 5552 5554 5556 5558 5560 5560 5561 5563 5564 5564
5451 5454 5457 5461 5464 5467 5470 5472 5475 5478 5483 5489 5490 5492 5493 5495 5497 5501 5505 5509 5513 5518 5522 5526 5529 5533 5536 5539 5541 5544 5546 5548 5550 5551 5552 5553 5555 5555
5440 5443 5447 5449 5453 5456 5459 5462 5465 5467 5471 5477 5479 5481 5483 5484 5486 5489 5492 5497 5503 5507 5512 5516 5519 5522 5525 5528 5531 5533 5535 5537 5539 5541 5543 5543 5544 5546
5429 5432 5435 5439 5442 5446 5448 5451 5454 5457 5460 5465 5468 5470 5472 5473 5475 5478 5482 5486 5491 5496 5501 5505 5509 5511 5515 5517 5520 5523 5524 5527 5528 5530 5532 5533 5534 5535
5418 5421 5424 5427 5432 5435 5439 5442 5444 5448 5450 5454 5457 5458 5459 5461 5463 5467 5471 5475 5480 5484 5489 5494 5497 5500 5503 5506 5509 5512 5514 5516 5518 5519 5521 5521 5522 5524
5407 5410 5413 5417 5421 5424 5428 5432 5434 5436 5438 5441 5444 5446 5448 5450 5452 5456 5460 5464 5468 5473 5477 5481 5485 5488 5492 5495 5498 5500 5502 5504 5506 5508 5509 5511 5511 5512
5396 5400 5403 5407 5411 5415 5419 5422 5424 5426 5428 5430 5433 5435 5438 5439 5442 5445 5448 5452 5456 5461 5465 5469 5473 5478 5481 5483 5486 5488 5490 5493 5494 5496 5498 5499 5500 5501
5386 5390 5393 5397 5401 5405 5409 5413 5415 5417 5419 5422 5424 5427 5430 5431 5433 5435 5437 5440 5446 5450 5452 5457 5460 5465 5469 5472 5475 5476 5479 5481 5483 5485 5486 5488 5488 5490
5377 5380 5385 5389 5391 5395 5399 5402 5405 5408 5411 5413 5416 5419 5421 5423 5423 5425 5427 5430 5436 5439 5438 5446 5449 5453 5457 5460 5462 5465 5467 5469 5470 5472 5474 5475 5477 5478
5368 5372 5375 5379 5382 5386 5389 5392 5396 5399 5401 5403 5408 5412 5413 5414 5415 5417 5418 5420 5425 5427 5427 5433 5439 5441 5445 5448 5450 5452 5454 5457 5458 5460 5462 5463 5465 5467
5359 5363 5367 5371 5375 5377 5380 5383 5386 5390 5392 5395 5399 5402 5404 5405 5405 5405 5406 5409 5415 5418 5417 5420 5426 5427 5432 5436 5438 5439 5442 5444 5446 5448 5450 5451 5453 5454
5350 5354 5358 5362 5365 5367 5370 5373 5377 5381 5383 5386 5389 5391 5393 5394 5396 5397 5398 5399 5403 5407 5409 5407 5411 5410 5416 5425 5426 5427 5429 5431 5433 5435 5437 5439 5440 5441
5340 5345 5349 5352 5355 5358 5361 5365 5369 5371 5373 5376 5379 5381 5383 5384 5386 5387 5388 5390 5393 5396 5398 5395 5397 5398 5400 5408 5412 5414 5416 5418 5419 5422 5424 5426 5427 5429
5332 5336 5340 5342 5345 5349 5352 5356 5358 5360 5362 5365 5368 5371 5374 5376 5377 5377 5378 5379 5382 5386 5386 5385 5386 5387 5388 5392 5398 5401 5402 5403 5405 5407 5410 5412 5414 5416
5323 5327 5331 5333 5335 5338 5341 5345 5347 5349 5351 5354 5359 5362 5365 5366 5366 5367 5368 5369 5371 5373 5375 5374 5375 5376 5377 5380 5384 5387 5388 5389 5390 5393 5395 5397 5400 5402
5314 5317 5320 5322 5324 5327 5330 5332 5335 5338 5341 5345 5349 5352 5353 5354 5356 5357 5358 5359 5360 5363 5364 5364 5364 5365 5366 5369 5371 5373 5375 5376 5378 5378 5380 5383 5385 5388
5304 5306 5307 5309 5312 5315 5319 5322 5324 5327 5330 5334 5337 5340 5342 5343 5345 5347 5347 5348 5349 5353 5354 5354 5353 5354 5355 5357 5358 5362 5363 5364 5365 5365 5366 5370 5374 5376
5294 5295 5298 5300 5303 5306 5309 5312 5315 5318 5321 5324 5326 5329 5331 5333 5335 5336 5336 5337 5339 5342 5344 5344 5342 5342 5343 5345 5348 5350 5350 5352 5352 5352 5353 5356 5362 5365
5284 5286 5288 5290 5294 5296 5299 5303 5306 5309 5311 5314 5316 5319 5320 5322 5324 5325 5326 5327 5328 5330 5332 5332 5332 5332 5333 5337 5340 5338 5338 5339 5339 5339 5341 5344 5349 5355
5274 5276 5278 5280 5283 5287 5291 5294 5297 5299 5301 5304 5307 5309 5310 5311 5313 5315 5316 5317 5318 5319 5320 5321 5322 5323 5324 5327 5327 5327 5326 5327 5328 5329 5331 5333 5338 5342
5263 5265 5268 5270 5274 5278 5281 5284 5287 5290 5293 5295 5298 5300 5301 5302 5304 5305 5307 5308 5309 5310 5311 5313 5315 5314 5312 5311 5312 5316 5317 5317 5319 5320 5321 5322 5326 5330
5253 5255 5258 5261 5264 5268 5271 5274 5278 5281 5284 5287 5289 5291 5293 5294 5295 5297 5299 5299 5300 5302 5303 5303 5302 5302 5302 5302 5304 5305 5306 5308 5309 5310 5312 5315 5316 5321
5243 5246 5249 5252 5256 5259 5262 5266 5269 5272 5275 5278 5281 5283 5285 5286 5287 5288 5290 5291 5291 5293 5293 5292 5292 5293 5293 5293 5293 5294 5295 5297 5298 5301 5304 5307 5310 5314